User: anonymous   Login
Location: Unspecified
(0.0000°N, 0.0000°E)
Time: 12:46:56
(UTC+00:00)
Language:

Optus B3 - Orbit

View from above orbital plane
View from above orbital plane
View from above satellite
View from above satellite

Ground track
Ground track

The orbit data is extracted from the following two-line orbital elements,

1 23227U 94055A   17291.42920748 -.00000073  00000-0  00000+0 0  9995
2 23227   7.5847  49.4602 0005751 249.7697 162.4922  0.98695643 84677
Epoch (UTC): 18 October 2017 10:18:03
Eccentricity: 0.0005751
inclination: 7.5847°
perigee height: 36209 km
apogee height: 36258 km
right ascension of ascending node: 49.4602°
argument of perigee: 249.7697°
revolutions per day: 0.98695643
mean anomaly at epoch: 162.4922°
orbit number at epoch: 8467

The dashed part of the orbit path shows where the satellite is in the earth's shadow,  

DLR